Weather in Yantarnyy

Russia / Rostov Oblast     47°17′17″N   39°49′34″E
temp.,
°C
wind,
m/s
gust,
m/s
humid.,
%
clouds,
%
prec.,
mm/h
press.,
hPa
HPBL,
m
25 october, mon
mon2500:00+9nnw264466 0.0 1023466
03:00+7nnw484911 0.0 1024444
06:00+6nnw486592 0.0 1026490
09:00+7n47605 0.0 1028745
12:00+9n453988 0.0 10291710
15:00+9n45325 0.0 10291781
18:00+8nne34331 0.0 10311229
21:00+6nne35355 0.0 1032510
26 october, tue
tue2600:00+5ne24365 0.0 1033256
03:00+4ne23390 0.0 1034214
06:00+3ene23430 0.0 1034186
09:00+4ene34400 0.0 1035354
12:00+7e23311 0.0 1034896
15:00+9e22260 0.0 10321034
18:00+8e23295 0.0 1032441
21:00+6e25335 0.0 1032174
27 october, wed
wed2700:00+5e35365 0.0 1032172
03:00+4e35455 0.0 1031172
06:00+3e35495 0.0 1030178
09:00+4e46475 0.0 1030284
12:00+10ese35305 0.0 1028713
15:00+12ese34240 0.0 1025925
18:00+10e25300 0.0 1025123
21:00+8ese25370 0.0 1025135
28 october, thu
thu2800:00+6ene22410 0.0 102456
03:00+6ne22440 0.0 102467
06:00+5ene22460 0.0 102469
09:00+7nne12410 0.0 1025183
12:00+11nnw123098 0.0 1024561
15:00+12nw2324100 0.0 1023907
18:00+10wnw2329100 0.0 1023124
21:00+8wnw233551 0.0 102381
29 october, fri
fri2900:00+8wnw22485 0.0 102363
03:00+7w23605 0.0 102371
06:00+8wsw2464100 0.0 1023134
09:00+9wsw2464100 0.0 1024158
12:00+12wnw246397 0.0 1025450
15:00+12nw236029 0.0 1025608
18:00+11ene117185 0.0 102618
21:00+11ene2673100 0.0 1027277